Starlink 32100

operational
NORAD ID: 59686 Int'l Des: 2024-086 Owner: SPXS Country: US Constellation: starlink
LEOCIRCULAR

关于 Starlink 32100

正在加载描述...

实时位置

正在加载3D地球...

即将过境

高度历史

Altitude vs Time

uPlot chart will show altitude changes over time

两行轨道根数

1 59686U 24086E 26034.59065866 .00000565 00000-0 30044-4 0 9995
2 59686 43.0007 234.3633 0001051 274.9248 85.1484 15.27575973 99107
Epoch: Feb 3, 2026 • Age: 18 hours

当前状态

高度 483.3 km
速度 7.63 km/s
星下点 -2.37°S, 154.58°E
发射日期 May 8, 2024
运行时间 1.7 years
类型 internet

技术详情

分类 Payload
质量 730.00 kg
干质量 700.00 kg
总质量 730.00 kg
长度 0.30 m
直径 4.10 m
跨度 29.00 m
形状 Box + pan
制造商 SPXS
平台类型 Starlink V2M
阶段状态 In Orbit
所有者/国家 SPXS/US

大型星座

Loading constellations...